QPF
0.00 0.00 0.00 0.00 0.00 0.00 0.00 0.00 0.00 0.00 0.00 0.00 0.00 0.00 0.00 0.00 0.00 0.00 0.00 0.00 0.00 0.00 0.00 0.00 0.00 0.00 0.00 0.00 0.00 0.00 0.00 0.01 0.02 0.04 0.13 0.10 0.04 0.05 0.01 0.00 0.00 0.00 0.01 0.01
0.00 0.00 0.00 0.00 0.00 0.00 0.00 0.00 0.00 0.00 0.00 0.00 0.00 0.00 0.00 0.00 0.00 0.00 0.00 0.00 0.00 0.00 0.00 0.00 0.00 0.00 0.00 0.00 0.01 0.00 0.00 0.01 0.01 0.02 0.05 0.09 0.07 0.00 0.00 0.00 0.00 0.00 0.01 0.05
0.00 0.00 0.00 0.00 0.00 0.00 0.00 0.00 0.00 0.00 0.00 0.00 0.00 0.00 0.00 0.00 0.00 0.00 0.00 0.00 0.00 0.00 0.00 0.02 0.02 0.00 0.00 0.00 0.01 0.02 0.01 0.02 0.03 0.02 0.02 0.03 0.06 0.00 0.00 0.00 0.00 0.00 0.00 0.01
0.00 0.00 0.00 0.00 0.00 0.00 0.00 0.00 0.00 0.00 0.00 0.00 0.00 0.00 0.00 0.00 0.00 0.00 0.00 0.00 0.00 0.00 0.00 0.00 0.01 0.01 0.00 0.00 0.00 0.03 0.03 0.03 0.03 0.02 0.02 0.01 0.03 0.03 0.00 0.00 0.00 0.00 0.00 0.00
0.00 0.00 0.00 0.00 0.00 0.00 0.00 0.00 0.00 0.00 0.00 0.00 0.00 0.00 0.00 0.00 0.00 0.00 0.00 0.00 0.00 0.00 0.00 0.00 0.00 0.00 0.00 0.01 0.01 0.02 0.08 0.05 0.01 0.02 0.04 0.02 0.02 0.02 0.01 0.00 0.00 0.00 0.00 0.00
0.00 0.00 0.00 0.00 0.00 0.00 0.00 0.00 0.00 0.00 0.00 0.00 0.00 0.00 0.00 0.00 0.00 0.00 0.00 0.00 0.00 0.00 0.00 0.00 0.00 0.00 0.00 0.00 0.00 0.00 0.06 0.13 0.09 0.06 0.05 0.04 0.02 0.00 0.00 0.00 0.00 0.00 0.00 0.00
0.00 0.00 0.00 0.00 0.00 0.00 0.00 0.00 0.00 0.00 0.00 0.00 0.00 0.00 0.00 0.00 0.00 0.00 0.00 0.00 0.00 0.00 0.00 0.00 0.00 0.00 0.00 0.00 0.00 0.00 0.00 0.10 0.41 0.40 0.25 0.13 0.05 0.02 0.01 0.00 0.01 0.02 0.00 0.00
0.00 0.00 0.00 0.00 0.00 0.00 0.00 0.00 0.00 0.00 0.00 0.00 0.00 0.00 0.00 0.00 0.00 0.00 0.00 0.00 0.00 0.01 0.01 0.00 0.01 0.00 0.00 0.00 0.00 0.00 0.08 0.31 0.32 0.31 0.23 0.22 0.23 0.08 0.04 0.01 0.03 0.02 0.02 0.04
0.00 0.00 0.00 0.00 0.00 0.00 0.00 0.00 0.00 0.00 0.00 0.00 0.00 0.00 0.00 0.00 0.00 0.00 0.00 0.00 0.00 0.00 0.04 0.00 0.00 0.00 0.00 0.00 0.00 0.01 0.02 0.10 0.14 0.19 0.23 0.23 0.31 0.16 0.15 0.15 0.10 0.04 0.02 0.15
0.00 0.00 0.00 0.00 0.00 0.00 0.00 0.00 0.00 0.00 0.00 0.00 0.00 0.00 0.00 0.00 0.00 0.01 0.02 0.00 0.03 0.04 0.05 0.03 0.01 0.00 0.00 0.00 0.00 0.00 0.02 0.14 0.11 0.03 0.02 0.04 0.09 0.09 0.17 0.20 0.13 0.15 0.17 0.27
0.00 0.00 0.00 0.00 0.00 0.00 0.00 0.00 0.00 0.00 0.00 0.00 0.00 0.00 0.00 0.00 0.00 0.00 0.00 0.00 0.02 0.07 0.06 0.02 0.00 0.00 0.00 0.00 0.00 0.00 0.02 0.12 0.14 0.17 0.15 0.10 0.04 0.12 0.26 0.26 0.20 0.15 0.15 0.21
0.00 0.00 0.00 0.00 0.00 0.00 0.00 0.00 0.00 0.00 0.00 0.00 0.00 0.00 0.00 0.00 0.00 0.00 0.00 0.00 0.02 0.06 0.08 0.01 0.00 0.00 0.00 0.00 0.00 0.00 0.04 0.04 0.07 0.12 0.13 0.10 0.04 0.08 0.19 0.26 0.21 0.14 0.15 0.17
0.00 0.00 0.00 0.00 0.00 0.00 0.00 0.00 0.00 0.00 0.00 0.00 0.00 0.00 0.00 0.00 0.00 0.00 0.00 0.00 0.03 0.05 0.06 0.03 0.02 0.01 0.00 0.00 0.00 0.00 0.00 0.01 0.01 0.02 0.04 0.06 0.06 0.05 0.09 0.14 0.15 0.18 0.16 0.16
0.00 0.00 0.00 0.00 0.00 0.00 0.00 0.00 0.00 0.00 0.00 0.00 0.00 0.00 0.00 0.00 0.00 0.01 0.00 0.00 0.02 0.02 0.06 0.04 0.01 0.00 0.00 0.00 0.00 0.00 0.00 0.00 0.00 0.00 0.00 0.00 0.01 0.00 0.00 0.01 0.05 0.12 0.07 0.00
0.00 0.00 0.00 0.00 0.00 0.00 0.00 0.00 0.00 0.00 0.00 0.00 0.00 0.00 0.00 0.00 0.01 0.01 0.00 0.00 0.01 0.00 0.00 0.00 0.00 0.00 0.00 0.00 0.00 0.00 0.00 0.00 0.00 0.00 0.00 0.00 0.00 0.00 0.00 0.00 0.00 0.01 0.01 0.00
0.00 0.00 0.00 0.00 0.00 0.00 0.00 0.00 0.00 0.00 0.00 0.00 0.00 0.00 0.00 0.00 0.00 0.00 0.00 0.00 0.00 0.00 0.00 0.00 0.00 0.00 0.00 0.00 0.00 0.00 0.00 0.00 0.00 0.00 0.00 0.00 0.00 0.00 0.00 0.00 0.00 0.00 0.00 0.00
0.00 0.00 0.00 0.00 0.00 0.00 0.00 0.00 0.00 0.00 0.00 0.00 0.00 0.00 0.00 0.00 0.00 0.00 0.00 0.00 0.00 0.00 0.00 0.00 0.00 0.00 0.00 0.00 0.00 0.00 0.00 0.00 0.00 0.00 0.00 0.00 0.00 0.00 0.00 0.00 0.00 0.00 0.00 0.00
0.00 0.00 0.00 0.00 0.00 0.00 0.00 0.00 0.00 0.00 0.00 0.00 0.00 0.00 0.00 0.00 0.00 0.00 0.00 0.00 0.00 0.00 0.00 0.00 0.00 0.00 0.00 0.00 0.00 0.00 0.00 0.00 0.00 0.00 0.00 0.00 0.00 0.00 0.00 0.00 0.00 0.00 0.00 0.00
0.00 0.00 0.00 0.00 0.00 0.00 0.00 0.00 0.00 0.00 0.00 0.00 0.00 0.00 0.00 0.00 0.00 0.00 0.00 0.00 0.00 0.00 0.00 0.00 0.00 0.00 0.00 0.00 0.00 0.00 0.00 0.00 0.00 0.00 0.00 0.00 0.00 0.00 0.00 0.00 0.00 0.00 0.00 0.00
0.00 0.00 0.00 0.00 0.00 0.00 0.00 0.00 0.00 0.00 0.00 0.00 0.00 0.00 0.00 0.00 0.00 0.00 0.00 0.00 0.00 0.00 0.00 0.00 0.00 0.00 0.00 0.00 0.00 0.00 0.00 0.00 0.00 0.00 0.00 0.00 0.00 0.00 0.00 0.00 0.00 0.00 0.00 0.00
0.00 0.00 0.00 0.00 0.00 0.00 0.00 0.00 0.00 0.00 0.00 0.00 0.00 0.00 0.00 0.00 0.00 0.00 0.00 0.00 0.00 0.00 0.00 0.00 0.00 0.00 0.00 0.00 0.00 0.00 0.00 0.00 0.00 0.00 0.00 0.00 0.00 0.00 0.00 0.00 0.00 0.00 0.00 0.00
0.00 0.00 0.00 0.00 0.00 0.00 0.00 0.00 0.00 0.00 0.00 0.00 0.00 0.00 0.00 0.00 0.00 0.00 0.00 0.00 0.00 0.00 0.00 0.00 0.00 0.00 0.00 0.00 0.00 0.00 0.00 0.00 0.00 0.00 0.01 0.00 0.00 0.00 0.00 0.00 0.00 0.00 0.00 0.00
0.00 0.00 0.00 0.00 0.00 0.00 0.00 0.00 0.00 0.00 0.00 0.00 0.00 0.00 0.00 0.00 0.00 0.00 0.00 0.00 0.00 0.00 0.00 0.00 0.00 0.00 0.00 0.00 0.00 0.00 0.00 0.00 0.00 0.00 0.00 0.00 0.00 0.00 0.00 0.00 0.00 0.00 0.00 0.00
0.00 0.00 0.00 0.00 0.00 0.00 0.00 0.00 0.00 0.00 0.00 0.00 0.00 0.00 0.00 0.00 0.00 0.00 0.00 0.00 0.00 0.00 0.00 0.00 0.00 0.00 0.00 0.00 0.00 0.00 0.00 0.00 0.00 0.00 0.00 0.00 0.00 0.00 0.00 0.00 0.00 0.00 0.00 0.00
0.00 0.00 0.00 0.00 0.00 0.00 0.00 0.00 0.00 0.00 0.00 0.00 0.00 0.00 0.00 0.00 0.00 0.00 0.00 0.00 0.00 0.00 0.00 0.00 0.00 0.00 0.00 0.00 0.00 0.00 0.00 0.00 0.00 0.00 0.00 0.00 0.00 0.00 0.00 0.00 0.00 0.00 0.00 0.00
0.00 0.00 0.00 0.00 0.00 0.00 0.00 0.00 0.00 0.00 0.00 0.00 0.00 0.00 0.00 0.00 0.00 0.00 0.00 0.00 0.00 0.00 0.00 0.00 0.00 0.00 0.00 0.00 0.00 0.00 0.00 0.00 0.00 0.00 0.00 0.00 0.00 0.00 0.02 0.02 0.00 0.00 0.00 0.00
MSLP
1004.61 1005.28 1005.09 1005.06 1005.17 1005.16 1005.00 1004.24 1003.59 1002.78 1002.59 1003.05 1003.66 1004.87 1005.13 1005.52 1006.24 1006.52 1006.67 1006.92 1007.09 1006.98 1007.13 1007.84 1007.84 1008.02 1008.70 1009.30 1009.72 1010.15 1010.71 1011.35 1012.35 1013.14 1013.56 1013.68 1013.49 1013.59 1013.84 1013.59 1013.58 1013.76 1013.88 1014.23
1005.48 1005.17 1004.43 1004.63 1004.41 1004.68 1004.15 1003.86 1003.15 1002.66 1002.57 1003.14 1003.91 1005.45 1005.23 1005.54 1005.64 1005.75 1006.02 1006.44 1006.71 1007.23 1007.42 1007.34 1007.83 1008.52 1008.60 1008.44 1009.06 1009.99 1010.67 1011.36 1011.97 1012.48 1012.92 1013.33 1013.36 1013.40 1013.17 1013.08 1013.31 1013.43 1013.61 1013.86
1005.47 1004.40 1004.05 1004.17 1003.70 1004.08 1003.72 1003.16 1002.95 1003.15 1003.38 1003.86 1004.72 1005.59 1005.80 1006.03 1005.95 1005.86 1006.06 1006.28 1006.88 1006.87 1007.13 1006.89 1007.62 1007.79 1008.28 1009.03 1008.83 1009.64 1010.29 1011.12 1011.82 1012.28 1013.14 1013.61 1013.78 1013.53 1013.33 1013.03 1012.91 1013.01 1013.22 1013.40
1004.78 1003.87 1003.88 1003.83 1003.71 1003.45 1003.14 1002.72 1003.02 1003.58 1004.35 1005.18 1005.54 1006.87 1006.99 1006.94 1006.73 1006.45 1006.22 1006.09 1006.29 1006.28 1006.57 1006.78 1007.37 1007.40 1007.83 1008.52 1009.38 1009.65 1010.58 1011.06 1011.54 1011.94 1012.60 1013.02 1013.25 1013.33 1012.94 1012.51 1012.25 1012.35 1012.50 1012.74
1004.46 1004.01 1003.89 1003.62 1002.84 1002.44 1002.68 1002.76 1003.75 1004.30 1005.51 1006.20 1006.80 1007.60 1008.51 1007.87 1007.67 1007.04 1006.66 1006.59 1006.73 1006.45 1007.02 1007.03 1007.26 1007.36 1008.36 1009.31 1009.63 1010.13 1010.52 1010.72 1011.28 1011.79 1011.91 1012.44 1012.62 1012.79 1012.80 1012.80 1012.62 1012.23 1012.06 1012.19
1004.41 1003.63 1003.58 1002.71 1001.94 1002.15 1002.68 1003.46 1004.80 1006.10 1007.00 1007.89 1008.59 1008.80 1009.51 1009.17 1008.39 1007.44 1007.30 1006.88 1007.00 1007.71 1008.02 1007.99 1008.20 1008.51 1008.70 1008.91 1009.47 1009.84 1010.46 1011.61 1012.38 1012.86 1012.47 1012.24 1012.25 1012.30 1012.59 1012.76 1012.81 1012.37 1011.93 1011.99
1004.55 1003.29 1002.31 1001.86 1002.16 1002.46 1003.33 1004.98 1006.63 1007.96 1009.09 1009.58 1009.16 1009.53 1009.73 1008.88 1008.58 1008.02 1008.19 1007.88 1007.50 1007.79 1008.13 1008.21 1008.57 1009.18 1008.90 1008.92 1009.69 1010.25 1010.88 1012.02 1012.75 1013.10 1014.21 1014.24 1012.08 1012.14 1012.20 1012.15 1012.11 1012.03 1011.90 1011.80
1005.18 1003.64 1002.29 1001.60 1001.80 1002.51 1003.80 1005.26 1007.13 1008.91 1010.40 1010.17 1009.32 1009.56 1009.29 1008.84 1009.10 1008.86 1008.28 1008.57 1007.97 1008.03 1008.54 1008.62 1008.45 1009.07 1009.34 1009.16 1009.89 1010.23 1011.01 1011.52 1011.13 1011.09 1013.98 1012.99 1013.81 1011.68 1012.06 1011.47 1011.47 1011.23 1011.26 1011.19
1005.12 1003.80 1002.22 1001.58 1001.60 1002.06 1004.11 1005.47 1006.46 1008.76 1010.65 1011.02 1010.61 1009.74 1009.60 1009.29 1009.12 1008.46 1007.95 1007.78 1008.09 1007.82 1008.40 1008.89 1008.92 1009.46 1009.72 1009.26 1010.36 1010.27 1010.60 1010.53 1009.67 1010.17 1013.62 1012.97 1013.06 1011.10 1011.20 1010.98 1010.84 1010.63 1010.33 1010.44
1004.76 1004.43 1002.96 1001.92 1001.75 1002.66 1003.35 1005.07 1006.90 1008.88 1010.82 1011.63 1011.33 1010.60 1009.66 1009.55 1009.08 1009.03 1007.65 1007.89 1008.20 1008.27 1008.01 1009.52 1010.01 1010.55 1010.10 1008.92 1010.05 1010.42 1010.47 1010.17 1009.69 1009.52 1011.59 1012.81 1011.47 1010.64 1010.18 1010.43 1010.37 1010.39 1009.61 1010.23
1004.68 1005.01 1003.99 1003.18 1003.43 1003.68 1004.43 1005.48 1007.43 1009.07 1010.51 1011.55 1011.68 1010.51 1008.74 1008.79 1008.37 1008.28 1008.13 1008.38 1008.54 1007.96 1008.86 1010.35 1010.86 1011.23 1010.40 1009.45 1009.19 1009.98 1010.59 1010.55 1010.58 1010.72 1011.00 1010.94 1009.87 1010.00 1009.86 1010.00 1009.59 1009.83 1009.38 1009.44
1004.22 1005.33 1005.60 1004.74 1004.47 1004.30 1004.84 1006.06 1007.43 1009.48 1010.97 1011.55 1011.32 1009.95 1008.63 1008.28 1008.35 1008.09 1008.66 1009.25 1008.49 1009.19 1010.20 1010.63 1011.35 1011.53 1010.70 1010.31 1009.87 1010.07 1010.03 1010.46 1011.00 1011.22 1011.07 1010.44 1010.15 1009.81 1009.70 1009.21 1009.43 1009.36 1008.99 1008.96
1004.06 1005.55 1006.26 1005.88 1005.67 1005.22 1005.91 1006.68 1007.69 1008.81 1010.07 1011.07 1011.20 1010.11 1008.98 1008.55 1008.62 1008.69 1008.89 1009.32 1009.58 1010.39 1010.77 1011.36 1011.74 1011.42 1010.51 1010.36 1010.63 1010.30 1010.16 1010.50 1010.85 1010.77 1010.89 1010.57 1010.23 1009.81 1009.50 1009.31 1009.15 1009.05 1008.44 1008.57
1003.48 1005.97 1006.41 1006.59 1006.27 1006.29 1006.78 1007.18 1007.73 1008.57 1010.10 1011.03 1010.66 1010.18 1010.02 1009.42 1009.15 1009.22 1009.53 1009.87 1010.32 1010.80 1011.20 1011.51 1011.34 1010.82 1010.17 1010.36 1010.57 1010.42 1010.44 1010.37 1010.21 1010.21 1010.28 1010.28 1010.17 1009.85 1009.49 1009.18 1009.05 1008.56 1008.26 1008.35
1003.78 1006.33 1006.58 1006.89 1006.53 1006.58 1007.21 1007.80 1008.16 1008.66 1009.26 1009.87 1010.27 1010.49 1010.45 1010.25 1010.34 1010.30 1010.31 1010.72 1011.09 1011.65 1011.80 1011.55 1011.37 1011.23 1010.96 1010.68 1010.60 1010.41 1010.45 1010.55 1010.55 1010.37 1010.11 1009.76 1009.55 1009.43 1009.26 1009.06 1008.77 1008.46 1008.32 1008.27
1005.17 1007.21 1007.52 1007.95 1007.42 1007.35 1008.05 1008.37 1008.65 1008.92 1009.47 1009.74 1010.32 1010.70 1010.72 1010.71 1010.43 1010.84 1011.03 1011.11 1011.73 1012.33 1012.45 1012.34 1011.82 1011.08 1010.81 1010.66 1010.37 1010.24 1010.04 1010.27 1010.34 1009.76 1009.23 1009.15 1008.73 1008.77 1008.73 1008.61 1008.43 1008.24 1008.10 1008.12
1006.06 1007.64 1009.04 1009.38 1008.73 1008.52 1009.12 1009.69 1009.67 1009.82 1009.79 1010.01 1010.86 1011.38 1011.54 1011.78 1012.07 1012.45 1012.78 1012.61 1013.05 1013.13 1012.78 1012.48 1012.36 1012.04 1011.49 1010.73 1010.18 1009.85 1009.51 1009.18 1009.16 1008.76 1008.67 1008.37 1008.31 1008.25 1007.90 1007.79 1007.91 1007.81 1007.71 1007.64
1006.71 1008.31 1009.27 1010.51 1009.86 1010.29 1010.50 1010.20 1010.15 1010.36 1010.96 1010.85 1011.10 1011.80 1012.17 1012.24 1012.75 1013.02 1013.25 1013.47 1013.66 1013.59 1013.43 1013.33 1013.06 1012.61 1012.13 1011.60 1011.04 1010.47 1009.74 1009.38 1009.13 1008.80 1008.34 1008.05 1007.92 1007.64 1007.66 1007.55 1007.55 1007.55 1007.52 1007.57
1006.70 1008.22 1010.29 1011.21 1011.90 1011.69 1011.04 1010.28 1010.14 1010.50 1011.90 1011.93 1011.91 1012.06 1012.11 1012.14 1012.58 1013.50 1013.66 1013.84 1013.99 1013.84 1013.61 1013.38 1013.03 1012.59 1012.12 1011.76 1011.38 1011.04 1010.52 1010.07 1009.56 1009.04 1008.59 1008.18 1008.00 1007.66 1007.36 1007.23 1007.11 1007.05 1007.12 1007.12
1007.42 1008.04 1009.86 1011.93 1012.31 1011.90 1010.20 1010.04 1010.16 1010.46 1012.00 1012.19 1012.27 1012.44 1012.57 1012.68 1013.63 1014.17 1014.22 1014.40 1014.33 1014.20 1013.98 1013.58 1013.14 1012.78 1012.39 1011.90 1011.45 1010.93 1010.46 1010.04 1009.72 1009.16 1008.70 1008.21 1007.68 1007.23 1007.08 1006.98 1006.77 1006.52 1006.45 1006.36
1008.99 1010.18 1011.33 1012.29 1012.32 1011.46 1010.36 1010.27 1010.52 1011.62 1012.34 1012.23 1012.63 1013.01 1013.42 1014.10 1014.56 1014.85 1015.06 1015.15 1015.06 1014.72 1014.22 1013.83 1013.47 1013.12 1012.65 1012.09 1011.56 1011.06 1010.44 1009.92 1009.29 1008.82 1008.47 1008.05 1007.47 1007.15 1006.62 1006.39 1006.21 1006.16 1005.95 1005.85
1009.82 1010.99 1012.22 1013.03 1012.87 1011.83 1010.62 1010.74 1011.22 1011.78 1012.37 1012.90 1013.39 1013.73 1014.22 1014.64 1015.17 1015.48 1015.53 1015.21 1014.80 1014.54 1014.12 1013.77 1013.43 1013.01 1012.50 1012.11 1011.68 1011.11 1010.57 1009.90 1009.36 1008.88 1008.36 1007.78 1007.13 1006.59 1006.19 1006.03 1005.88 1005.67 1005.53 1005.42
1010.30 1010.61 1011.60 1012.85 1012.44 1011.70 1011.25 1011.05 1011.52 1011.99 1012.58 1013.35 1013.76 1014.09 1014.58 1015.11 1015.55 1015.57 1015.49 1015.35 1015.03 1014.65 1014.27 1013.95 1013.52 1012.92 1012.43 1011.92 1011.51 1010.91 1010.28 1009.69 1009.05 1008.55 1008.00 1007.49 1006.91 1006.48 1006.05 1005.69 1005.39 1005.16 1004.98 1004.91
1010.32 1010.72 1011.97 1012.63 1012.72 1012.22 1011.83 1011.92 1012.08 1012.48 1013.01 1013.65 1014.15 1014.55 1015.02 1015.71 1015.96 1015.97 1015.82 1015.68 1015.28 1014.75 1014.37 1013.91 1013.34 1012.94 1012.50 1012.11 1011.91 1011.23 1010.49 1009.93 1009.48 1008.62 1007.73 1007.04 1006.44 1005.84 1005.39 1005.02 1004.69 1004.39 1004.08 1003.89
1010.58 1010.94 1012.26 1013.13 1012.86 1012.74 1012.63 1012.53 1012.81 1013.38 1013.77 1014.28 1014.91 1015.34 1015.75 1015.99 1016.15 1016.11 1015.88 1015.59 1015.49 1015.19 1014.66 1014.17 1013.83 1013.50 1013.01 1012.45 1012.05 1011.63 1010.92 1010.33 1009.70 1008.92 1008.03 1007.17 1006.28 1005.34 1004.62 1004.16 1003.70 1003.36 1002.98 1002.90
1010.50 1010.91 1011.55 1012.21 1011.82 1012.28 1012.89 1013.11 1013.33 1013.80 1014.49 1015.08 1015.45 1015.87 1016.09 1016.22 1016.24 1016.09 1015.80 1015.83 1015.59 1015.23 1014.91 1014.55 1014.32 1013.81 1013.32 1012.66 1012.01 1011.47 1010.88 1010.29 1009.54 1008.67 1007.98 1007.33 1006.51 1005.42 1004.52 1003.59 1002.87 1002.43 1002.34 1002.14
Thickness
5825 5806 5798 5812 5817 5820 5814 5806 5808 5831 5850 5841 5827 5821 5826 5835 5833 5828 5827 5826 5827 5830 5836 5832 5832 5832 5826 5819 5811 5805 5798 5792 5785 5775 5770 5768 5768 5767 5763 5762 5763 5758 5752 5748
5802 5794 5824 5830 5830 5820 5822 5813 5820 5839 5851 5840 5833 5812 5829 5832 5835 5836 5834 5831 5831 5830 5830 5834 5831 5825 5824 5824 5820 5811 5803 5795 5791 5785 5779 5773 5771 5769 5771 5769 5764 5759 5756 5753
5793 5816 5836 5829 5824 5816 5818 5821 5826 5824 5834 5834 5825 5808 5815 5826 5833 5835 5838 5838 5834 5833 5830 5834 5829 5830 5829 5822 5824 5816 5808 5801 5793 5788 5777 5771 5766 5768 5770 5772 5770 5766 5761 5759
5807 5831 5828 5821 5815 5821 5814 5840 5838 5831 5808 5786 5818 5766 5801 5807 5809 5819 5830 5835 5834 5839 5839 5837 5831 5832 5830 5826 5822 5820 5810 5805 5800 5794 5783 5775 5767 5765 5769 5774 5777 5774 5770 5765
5801 5814 5815 5814 5825 5841 5823 5845 5834 5829 5800 5798 5801 5777 5782 5802 5796 5809 5824 5830 5832 5839 5833 5835 5834 5835 5828 5822 5820 5817 5811 5809 5801 5797 5792 5782 5777 5773 5771 5769 5771 5775 5776 5772
5809 5832 5830 5826 5845 5848 5845 5831 5813 5795 5783 5760 5770 5778 5764 5775 5792 5812 5821 5831 5832 5825 5823 5826 5826 5825 5825 5826 5822 5815 5807 5797 5788 5781 5782 5782 5781 5778 5771 5767 5766 5770 5774 5773
5800 5821 5842 5850 5832 5837 5823 5792 5753 5756 5744 5750 5775 5769 5766 5793 5798 5811 5812 5819 5826 5825 5821 5821 5820 5816 5820 5821 5812 5808 5799 5788 5772 5770 5760 5753 5777 5778 5774 5773 5770 5769 5770 5770
5775 5780 5831 5850 5835 5818 5815 5796 5753 5750 5736 5753 5781 5769 5771 5798 5797 5802 5814 5816 5824 5824 5818 5816 5822 5816 5810 5816 5811 5805 5794 5785 5789 5782 5743 5758 5746 5775 5772 5777 5773 5775 5772 5771
5770 5791 5837 5844 5846 5840 5810 5792 5806 5756 5751 5744 5751 5777 5787 5793 5794 5803 5809 5816 5818 5821 5818 5816 5817 5811 5804 5810 5799 5801 5795 5792 5800 5786 5756 5759 5759 5778 5777 5776 5776 5775 5777 5774
5803 5781 5825 5840 5850 5838 5828 5817 5782 5759 5741 5738 5740 5751 5761 5777 5787 5796 5808 5811 5810 5808 5821 5806 5804 5797 5796 5809 5797 5794 5790 5788 5794 5794 5771 5759 5768 5778 5782 5778 5776 5772 5777 5771
5807 5792 5802 5824 5811 5808 5801 5792 5778 5767 5752 5728 5724 5745 5782 5790 5798 5799 5804 5807 5805 5811 5810 5795 5792 5787 5790 5797 5802 5794 5787 5785 5780 5778 5774 5770 5782 5778 5778 5776 5778 5773 5772 5769
5815 5782 5774 5804 5815 5821 5813 5799 5780 5752 5758 5733 5734 5750 5789 5799 5801 5806 5802 5798 5804 5802 5794 5791 5781 5779 5783 5782 5786 5790 5788 5781 5773 5767 5766 5771 5772 5771 5769 5773 5772 5769 5768 5765
5814 5779 5756 5772 5790 5807 5791 5795 5778 5765 5751 5744 5735 5748 5788 5794 5795 5796 5796 5795 5792 5786 5781 5773 5768 5769 5780 5776 5769 5770 5774 5768 5760 5759 5756 5758 5758 5760 5760 5759 5762 5761 5763 5759
5821 5776 5772 5752 5777 5787 5780 5788 5781 5771 5743 5740 5742 5756 5761 5774 5779 5784 5783 5783 5778 5772 5768 5763 5764 5768 5773 5770 5765 5758 5748 5746 5752 5752 5749 5746 5745 5747 5748 5749 5748 5751 5753 5750
5815 5779 5787 5786 5794 5793 5782 5777 5777 5770 5767 5758 5757 5750 5759 5763 5761 5767 5771 5770 5765 5757 5755 5756 5756 5755 5755 5754 5751 5750 5745 5739 5731 5726 5727 5731 5737 5737 5735 5734 5735 5737 5737 5738
5800 5771 5780 5768 5780 5781 5763 5763 5768 5770 5766 5757 5753 5748 5760 5759 5767 5760 5757 5760 5753 5747 5745 5745 5748 5751 5749 5746 5745 5741 5738 5729 5726 5728 5728 5724 5725 5724 5724 5724 5723 5723 5724 5725
5789 5767 5751 5751 5759 5765 5736 5742 5749 5748 5752 5754 5736 5745 5748 5741 5739 5736 5734 5736 5729 5727 5730 5731 5729 5727 5730 5734 5736 5735 5734 5733 5727 5725 5723 5721 5717 5713 5714 5715 5714 5714 5714 5715
5776 5759 5746 5736 5748 5714 5734 5752 5751 5741 5740 5743 5740 5737 5737 5737 5733 5731 5730 5725 5720 5719 5718 5717 5715 5714 5716 5715 5715 5718 5721 5720 5716 5713 5712 5709 5707 5706 5705 5704 5700 5699 5701 5702
5781 5758 5733 5726 5703 5723 5733 5743 5743 5732 5719 5731 5729 5734 5737 5739 5734 5720 5722 5720 5715 5715 5714 5712 5712 5711 5709 5706 5703 5700 5698 5696 5695 5695 5694 5694 5692 5691 5695 5693 5692 5691 5690 5691
5772 5764 5745 5714 5712 5696 5730 5748 5751 5741 5698 5729 5727 5725 5725 5724 5703 5701 5711 5708 5705 5703 5701 5702 5703 5700 5697 5696 5694 5690 5688 5684 5679 5676 5675 5676 5678 5680 5681 5682 5683 5684 5684 5684
5737 5731 5723 5709 5704 5716 5742 5746 5744 5707 5706 5728 5723 5717 5713 5700 5696 5700 5698 5694 5695 5695 5694 5693 5691 5689 5688 5687 5683 5681 5680 5678 5677 5672 5667 5662 5663 5663 5670 5672 5673 5673 5674 5676
5734 5719 5711 5700 5699 5707 5743 5740 5722 5718 5719 5716 5712 5708 5704 5701 5694 5691 5690 5689 5690 5688 5687 5685 5682 5680 5679 5676 5673 5671 5669 5670 5667 5661 5656 5651 5651 5655 5658 5659 5661 5663 5664 5665
5726 5728 5712 5710 5709 5724 5729 5730 5727 5722 5714 5709 5705 5704 5697 5692 5686 5685 5682 5681 5680 5679 5678 5676 5673 5674 5672 5670 5665 5664 5664 5664 5662 5657 5652 5648 5647 5646 5647 5648 5650 5652 5654 5654
5734 5729 5712 5709 5716 5720 5724 5724 5722 5718 5712 5704 5698 5693 5689 5681 5678 5674 5672 5669 5669 5672 5668 5666 5666 5663 5660 5658 5652 5652 5652 5650 5646 5646 5647 5646 5645 5644 5644 5643 5642 5643 5645 5647
5723 5725 5705 5699 5711 5712 5712 5713 5711 5704 5700 5694 5688 5684 5678 5673 5669 5666 5665 5665 5661 5659 5658 5656 5652 5648 5647 5646 5642 5638 5637 5635 5632 5631 5632 5634 5636 5639 5640 5638 5637 5637 5639 5640
5721 5713 5701 5692 5709 5703 5701 5703 5700 5694 5687 5682 5677 5672 5668 5664 5661 5659 5660 5656 5654 5651 5648 5645 5640 5638 5636 5636 5634 5631 5629 5626 5623 5624 5622 5620 5620 5624 5625 5627 5630 5628 5628 5628